ITY1463 LIRF-LIPZ

Flight info

Callsign ITY1463
Flight time 0h 46m
Altitude 36000
Route SOVAN DCT AMTEL DCT BIKTU DCT OGAPU DCT GOXIN DCT SUKOM/N0334F180 Q125 NIMUM Z43 OTGIG
Aircraft A20N/M-SDE2E3FGHIJ1RWXY/LB1

Departure

Time 2026-02-19 14:25
Airport Rome–Fiumicino Leonardo da Vinci International Airport (LIRF)

Arrival

Time 2026-02-19 15:11
Airport Venice Marco Polo Airport (LIPZ)
Time Latitude Longitude Altitude Speed Heading
2026-02-19 14:09 41.79688 12.25615 18 ft 0 kts 297°
2026-02-19 14:16 41.79685 12.25622 17 ft 2 kts 297°
2026-02-19 14:17 41.79676 12.25646 17 ft 3 kts 297°
2026-02-19 14:17 41.79667 12.25670 19 ft 3 kts 304°
2026-02-19 14:17 41.79664 12.25680 18 ft 2 kts 23°
2026-02-19 14:17 41.79662 12.25679 18 ft 1 kts 24°
2026-02-19 14:18 41.79667 12.25682 18 ft 1 kts 23°
2026-02-19 14:18 41.79669 12.25683 16 ft 1 kts 24°
2026-02-19 14:20 41.79750 12.25733 17 ft 14 kts 24°
2026-02-19 14:20 41.79849 12.25801 17 ft 18 kts 32°
2026-02-19 14:21 41.79967 12.25882 18 ft 20 kts 24°
2026-02-19 14:21 41.80107 12.25966 16 ft 24 kts 23°
2026-02-19 14:21 41.80240 12.26050 14 ft 22 kts 25°
2026-02-19 14:21 41.80382 12.26139 14 ft 22 kts 25°
2026-02-19 14:22 41.80516 12.26214 15 ft 18 kts 49°
2026-02-19 14:22 41.80566 12.26373 17 ft 19 kts 69°
2026-02-19 14:22 41.80614 12.26554 15 ft 14 kts 70°
2026-02-19 14:22 41.80647 12.26676 14 ft 14 kts 70°
2026-02-19 14:23 41.80675 12.26778 13 ft 14 kts 69°
2026-02-19 14:23 41.80716 12.26923 10 ft 17 kts 69°
2026-02-19 14:23 41.80781 12.27044 10 ft 15 kts 14°
2026-02-19 14:23 41.80878 12.27005 10 ft 10 kts 339°
2026-02-19 14:24 41.80948 12.26960 11 ft 12 kts 316°
2026-02-19 14:24 41.80786 12.26322 19 ft 91 kts 249°
2026-02-19 14:24 41.80614 12.25698 15 ft 124 kts 250°
2026-02-19 14:25 41.80275 12.24463 164 ft 152 kts 249°
2026-02-19 14:25 41.79926 12.23181 907 ft 142 kts 250°
2026-02-19 14:25 41.79567 12.21958 1628 ft 136 kts 249°
2026-02-19 14:25 41.79225 12.20811 2260 ft 136 kts 255°
2026-02-19 14:26 41.79154 12.19445 2506 ft 162 kts 278°
2026-02-19 14:26 41.79673 12.17947 2652 ft 195 kts 302°
2026-02-19 14:26 41.80511 12.16511 3573 ft 192 kts 304°
2026-02-19 14:26 41.81395 12.15132 4530 ft 200 kts 305°
2026-02-19 14:27 41.82300 12.13710 5477 ft 201 kts 303°
2026-02-19 14:27 41.83187 12.12258 6445 ft 202 kts 303°
2026-02-19 14:27 41.84155 12.10837 7311 ft 213 kts 315°
2026-02-19 14:27 41.85506 12.09868 8129 ft 230 kts 337°
2026-02-19 14:28 41.87106 12.09292 8805 ft 248 kts 338°
2026-02-19 14:28 41.90762 12.07955 9739 ft 296 kts 338°
2026-02-19 14:28 41.92834 12.07187 10141 ft 321 kts 339°
2026-02-19 14:29 41.95071 12.06380 10495 ft 346 kts 342°
2026-02-19 14:29 41.97517 12.05937 11175 ft 361 kts 352°
2026-02-19 14:29 42.00052 12.05720 11959 ft 369 kts 352°
2026-02-19 14:29 42.02635 12.05477 12800 ft 375 kts 351°
2026-02-19 14:30 42.05263 12.05219 13607 ft 381 kts 351°
2026-02-19 14:30 42.07919 12.04956 14433 ft 384 kts 351°
2026-02-19 14:30 42.10594 12.04693 15238 ft 388 kts 351°
2026-02-19 14:30 42.13300 12.04426 16020 ft 392 kts 351°
2026-02-19 14:31 42.16032 12.04156 16843 ft 395 kts 351°
2026-02-19 14:31 42.18751 12.03839 17895 ft 392 kts 348°
2026-02-19 14:31 42.21464 12.03237 18425 ft 399 kts 346°
2026-02-19 14:31 42.24190 12.02614 18976 ft 406 kts 345°
2026-02-19 14:32 42.26996 12.01976 19554 ft 412 kts 345°
2026-02-19 14:32 42.32728 12.00682 20672 ft 424 kts 345°
2026-02-19 14:32 42.35658 12.00020 21230 ft 430 kts 345°
2026-02-19 14:33 42.38630 11.99349 21787 ft 436 kts 344°
2026-02-19 14:33 42.41646 11.98668 22329 ft 443 kts 345°
2026-02-19 14:33 42.44703 11.97980 22870 ft 448 kts 345°
2026-02-19 14:33 42.47797 11.97282 23404 ft 454 kts 344°
2026-02-19 14:34 42.50923 11.96577 23910 ft 457 kts 344°
2026-02-19 14:34 42.54072 11.95867 24408 ft 461 kts 344°
2026-02-19 14:34 42.57246 11.95148 24876 ft 464 kts 344°
2026-02-19 14:34 42.60439 11.94425 25362 ft 468 kts 344°
2026-02-19 14:35 42.63666 11.93691 25804 ft 472 kts 344°
2026-02-19 14:35 42.66920 11.92951 26245 ft 476 kts 344°
2026-02-19 14:35 42.70199 11.92206 26695 ft 479 kts 344°
2026-02-19 14:35 42.73502 11.91455 27102 ft 483 kts 343°
2026-02-19 14:36 42.76817 11.90658 27522 ft 484 kts 341°
2026-02-19 14:36 42.83439 11.88703 28337 ft 490 kts 340°
2026-02-19 14:36 42.86780 11.87692 28721 ft 494 kts 340°
2026-02-19 14:37 42.90102 11.86700 29154 ft 497 kts 340°
2026-02-19 14:37 42.93490 11.85700 29574 ft 500 kts 340°
2026-02-19 14:37 42.96906 11.84698 29974 ft 503 kts 340°
2026-02-19 14:37 43.00333 11.83694 30398 ft 504 kts 340°
2026-02-19 14:38 43.03763 11.82691 30838 ft 504 kts 340°
2026-02-19 14:38 43.07191 11.81687 31325 ft 503 kts 340°
2026-02-19 14:38 43.10604 11.80688 31659 ft 499 kts 340°
2026-02-19 14:38 43.13987 11.79697 31783 ft 497 kts 340°
2026-02-19 14:39 43.17366 11.78700 31882 ft 497 kts 340°
2026-02-19 14:39 43.24116 11.76704 31972 ft 494 kts 340°
2026-02-19 14:40 43.30825 11.74717 31941 ft 494 kts 340°
2026-02-19 14:40 43.40903 11.71726 31809 ft 494 kts 340°
2026-02-19 14:41 43.47605 11.69732 31714 ft 491 kts 341°
2026-02-19 14:41 43.54281 11.67741 31621 ft 491 kts 341°
2026-02-19 14:42 43.60930 11.65748 31181 ft 486 kts 341°
2026-02-19 14:42 43.64249 11.64753 30436 ft 489 kts 342°
2026-02-19 14:42 43.67560 11.63759 29978 ft 483 kts 342°
2026-02-19 14:43 43.74241 11.62283 29656 ft 499 kts 355°
2026-02-19 14:43 43.77711 11.62669 29382 ft 502 kts
2026-02-19 14:43 43.81135 11.63550 29082 ft 498 kts
2026-02-19 14:44 43.84517 11.64516 28795 ft 494 kts
2026-02-19 14:44 43.91189 11.66458 28223 ft 487 kts
2026-02-19 14:44 43.94499 11.67409 27941 ft 486 kts
2026-02-19 14:45 43.97820 11.68357 27612 ft 492 kts
2026-02-19 14:45 44.01191 11.69315 27340 ft 494 kts
2026-02-19 14:45 44.04539 11.70269 27105 ft 487 kts
2026-02-19 14:45 44.07842 11.71212 26843 ft 483 kts
2026-02-19 14:46 44.11132 11.72152 26581 ft 483 kts
2026-02-19 14:46 44.14419 11.73090 26321 ft 481 kts
2026-02-19 14:46 44.17685 11.74023 26059 ft 479 kts
2026-02-19 14:46 44.20936 11.74959 25814 ft 476 kts
2026-02-19 14:47 44.24171 11.75887 25558 ft 474 kts
2026-02-19 14:47 44.27396 11.76810 25306 ft 472 kts
2026-02-19 14:47 44.30603 11.77730 25031 ft 469 kts
2026-02-19 14:47 44.33750 11.78634 24786 ft 467 kts
2026-02-19 14:48 44.36925 11.79549 24544 ft 465 kts
2026-02-19 14:48 44.43253 11.81373 23661 ft 465 kts
2026-02-19 14:48 44.46413 11.82286 23032 ft 463 kts
2026-02-19 14:49 44.49549 11.83194 22464 ft 457 kts
2026-02-19 14:49 44.52635 11.84089 21896 ft 450 kts
2026-02-19 14:49 44.55682 11.84973 21328 ft 444 kts
2026-02-19 14:49 44.58691 11.85846 20773 ft 438 kts
2026-02-19 14:50 44.61659 11.86708 20212 ft 433 kts
2026-02-19 14:50 44.64593 11.87561 19664 ft 428 kts
2026-02-19 14:50 44.67488 11.88404 19115 ft 424 kts
2026-02-19 14:50 44.70367 11.89242 18572 ft 419 kts
2026-02-19 14:51 44.73201 11.90069 18032 ft 415 kts
2026-02-19 14:51 44.76012 11.90890 17441 ft 410 kts
2026-02-19 14:51 44.78786 11.91699 16928 ft 404 kts 10°
2026-02-19 14:51 44.81519 11.92499 16398 ft 398 kts 10°
2026-02-19 14:52 44.84215 11.93289 15880 ft 393 kts 10°
2026-02-19 14:52 44.89504 11.94842 14858 ft 384 kts
2026-02-19 14:52 44.92104 11.95605 14369 ft 380 kts
2026-02-19 14:53 44.94676 11.96361 13883 ft 376 kts
2026-02-19 14:53 44.97223 11.97108 13473 ft 370 kts 10°
2026-02-19 14:53 44.99697 11.97838 13320 ft 356 kts 10°
2026-02-19 14:53 45.02080 11.98543 13180 ft 343 kts
2026-02-19 14:54 45.04375 11.99222 13050 ft 331 kts
2026-02-19 14:54 45.06581 11.99875 12916 ft 318 kts
2026-02-19 14:54 45.08691 12.00501 12751 ft 301 kts
2026-02-19 14:54 45.10689 12.01094 12569 ft 286 kts
2026-02-19 14:55 45.12617 12.01665 12247 ft 280 kts
2026-02-19 14:55 45.14501 12.02221 11992 ft 274 kts
2026-02-19 14:55 45.16349 12.02988 11824 ft 279 kts 29°
2026-02-19 14:55 45.17810 12.04711 11671 ft 272 kts 53°
2026-02-19 14:56 45.18970 12.06818 11313 ft 271 kts 55°
2026-02-19 14:56 45.21193 12.11079 10574 ft 267 kts 56°
2026-02-19 14:56 45.22294 12.13189 10260 ft 265 kts 55°
2026-02-19 14:57 45.23390 12.15279 9996 ft 260 kts 55°
2026-02-19 14:57 45.24466 12.17325 9902 ft 256 kts 55°
2026-02-19 14:57 45.25520 12.19324 9771 ft 252 kts 55°
2026-02-19 14:57 45.26571 12.21322 9663 ft 253 kts 54°
2026-02-19 14:58 45.27622 12.23320 9538 ft 253 kts 54°
2026-02-19 14:58 45.28677 12.25325 9350 ft 252 kts 54°
2026-02-19 14:58 45.29719 12.27307 9066 ft 249 kts 54°
2026-02-19 14:58 45.30755 12.29278 8684 ft 249 kts 54°
2026-02-19 14:59 45.31774 12.31214 8513 ft 238 kts 55°
2026-02-19 14:59 45.32755 12.33081 8211 ft 235 kts 55°
2026-02-19 14:59 45.33733 12.34947 7829 ft 236 kts 55°
2026-02-19 14:59 45.34709 12.36813 7504 ft 234 kts 55°
2026-02-19 15:00 45.35681 12.38671 7220 ft 236 kts 55°
2026-02-19 15:00 45.37631 12.42400 6692 ft 233 kts 55°
2026-02-19 15:00 45.38605 12.44262 6567 ft 235 kts 55°
2026-02-19 15:01 45.39578 12.46123 6442 ft 234 kts 55°
2026-02-19 15:01 45.40548 12.47982 6320 ft 234 kts 55°
2026-02-19 15:01 45.41518 12.49841 6197 ft 234 kts 55°
2026-02-19 15:01 45.42499 12.51718 5991 ft 241 kts 56°
2026-02-19 15:02 45.43502 12.53644 5807 ft 242 kts 55°
2026-02-19 15:02 45.44670 12.55392 5439 ft 247 kts 36°
2026-02-19 15:02 45.46175 12.56602 5060 ft 247 kts 25°
2026-02-19 15:02 45.47685 12.57677 4909 ft 237 kts 27°
2026-02-19 15:03 45.49125 12.58718 4721 ft 231 kts 27°
2026-02-19 15:03 45.50547 12.59766 4400 ft 231 kts 27°
2026-02-19 15:03 45.51944 12.60804 4223 ft 220 kts 27°
2026-02-19 15:03 45.53270 12.61788 3833 ft 217 kts 27°
2026-02-19 15:04 45.54603 12.62778 3674 ft 213 kts 27°
2026-02-19 15:04 45.57342 12.64666 3480 ft 218 kts 10°
2026-02-19 15:04 45.58777 12.64523 3345 ft 203 kts 330°
2026-02-19 15:05 45.59842 12.63282 3238 ft 196 kts 297°
2026-02-19 15:05 45.60346 12.61556 3001 ft 186 kts 282°
2026-02-19 15:05 45.60769 12.59815 2771 ft 185 kts 283°
2026-02-19 15:05 45.61202 12.58086 2553 ft 184 kts 285°
2026-02-19 15:06 45.61635 12.56368 2314 ft 182 kts 286°
2026-02-19 15:06 45.62054 12.54746 2167 ft 168 kts 287°
2026-02-19 15:06 45.62452 12.53206 2038 ft 169 kts 286°
2026-02-19 15:06 45.62624 12.51592 2000 ft 161 kts 258°
2026-02-19 15:07 45.62155 12.50212 2015 ft 153 kts 227°
2026-02-19 15:07 45.61355 12.49177 2002 ft 158 kts 223°
2026-02-19 15:07 45.60541 12.48107 2004 ft 157 kts 223°
2026-02-19 15:07 45.59744 12.47049 1996 ft 154 kts 223°
2026-02-19 15:08 45.58945 12.46003 1960 ft 158 kts 223°
2026-02-19 15:08 45.57292 12.43925 1569 ft 155 kts 224°
2026-02-19 15:08 45.56556 12.42928 1306 ft 138 kts 224°
2026-02-19 15:09 45.55891 12.42019 1021 ft 129 kts 221°
2026-02-19 15:09 45.55224 12.41202 779 ft 125 kts 222°
2026-02-19 15:09 45.54580 12.40391 642 ft 125 kts 222°
2026-02-19 15:09 45.53918 12.39595 516 ft 120 kts 219°
2026-02-19 15:10 45.53249 12.38879 376 ft 120 kts 219°
2026-02-19 15:10 45.52615 12.38102 311 ft 118 kts 229°
2026-02-19 15:10 45.52043 12.37188 185 ft 124 kts 227°
2026-02-19 15:10 45.51425 12.36368 37 ft 121 kts 226°
2026-02-19 15:11 45.50858 12.35623 17 ft 88 kts 223°
2026-02-19 15:11 45.50546 12.35225 10 ft 39 kts 223°
2026-02-19 15:11 45.50421 12.34974 11 ft 22 kts 245°
2026-02-19 15:11 45.50400 12.34898 13 ft 0 kts 250°
2026-02-19 15:12 45.50399 12.34897 13 ft 0 kts 250°
2026-02-19 15:12 45.50398 12.34892 13 ft 0 kts 250°
2026-02-19 15:12 45.50398 12.34890 13 ft 1 kts 250°
2026-02-19 15:13 45.50396 12.34885 13 ft 0 kts 250°
2026-02-19 15:13 45.50395 12.34880 12 ft 2 kts 250°
2026-02-19 15:14 45.50378 12.34814 13 ft 12 kts 251°
2026-02-19 15:14 45.50364 12.34743 14 ft 7 kts 256°
2026-02-19 15:14 45.50344 12.34645 16 ft 14 kts 244°
2026-02-19 15:14 45.50254 12.34508 17 ft 22 kts 223°
2026-02-19 15:15 45.50200 12.34369 15 ft 11 kts 334°
2026-02-19 15:15 45.50281 12.34357 18 ft 14 kts 358°
2026-02-19 15:15 45.50389 12.34350 19 ft 17 kts 356°
2026-02-19 15:15 45.50519 12.34338 16 ft 16 kts 356°
2026-02-19 15:16 45.50547 12.34324 15 ft 2 kts 287°
2026-02-19 15:16 45.50548 12.34229 15 ft 4 kts 267°
2026-02-19 15:16 45.50548 12.34214 15 ft 0 kts 267°